FW3933 Weather Reports


Display with metric or nautical units.
time (UTC)temp
F
wind
direction
speed
MPH
gust
MPH
rain 1hr
in
rain 24hr
in
rain mn
in
humidity
%
barometer
mb
20260906172016 62 284 0.0 6.0 0.00 0.00 0.00 63 1019.7
20260906171026 61 315 1.0 8.0 0.00 0.00 0.00 65 1019.6
20260906170527 61 301 1.0 8.0 0.00 0.00 0.00 65 1019.6
20260906170024 61 273 0.0 7.0 0.00 0.00 0.00 66 1019.6
20260906165524 61 286 1.0 8.0 0.00 0.00 0.00 65 1019.7
20260906165023 61 279 0.0 7.0 0.00 0.00 0.00 65 1019.7
20260906164536 61 245 0.0 8.0 0.00 0.00 0.00 67 1019.7
20260906164022 60 287 1.0 10.0 0.00 0.00 0.00 68 1019.7
20260906163521 60 266 0.0 10.0 0.00 0.00 0.00 68 1019.6
20260906163031 60 305 0.0 8.0 0.00 0.00 0.00 70 1019.7
20260906162520 60 318 1.0 6.0 0.00 0.00 0.00 71 1019.8
20260906162019 59 255 0.0 6.0 0.00 0.00 0.00 72 1019.8
20260906161009 59 294 0.0 5.0 0.00 0.00 0.00 73 1019.8
20260906160509 58 263 1.0 10.0 0.00 0.00 0.00 73 1019.8
20260906160007 58 213 0.0 8.0 0.00 0.00 0.00 74 1019.7
20260906155507 58 230 1.0 8.0 0.00 0.00 0.00 74 1019.8
20260906155005 57 284 0.0 7.0 0.00 0.00 0.00 73 1019.7
20260906154513 57 301 1.0 7.0 0.00 0.00 0.00 73 1019.7
20260906154005 57 281 0.0 8.0 0.00 0.00 0.00 74 1019.7
20260906153507 57 286 1.0 8.0 0.00 0.00 0.00 75 1019.7
20260906153004 57 282 1.0 8.0 0.00 0.00 0.00 75 1019.7
20260906152503 57 303 1.0 8.0 0.00 0.00 0.00 74 1019.7
20260906152006 57 257 0.0 7.0 0.00 0.00 0.00 74 1019.7
20260906151006 56 280 0.0 8.0 0.00 0.00 0.00 75 1019.7
20260906150504 56 288 0.0 8.0 0.00 0.00 0.00 74 1019.7
20260906150014 56 241 1.0 7.0 0.00 0.00 0.00 73 1019.7
20260906145507 56 284 1.0 7.0 0.00 0.00 0.00 73 1019.7
20260906145002 56 258 0.0 6.0 0.00 0.00 0.00 72 1019.6
20260906144502 56 295 0.0 9.0 0.00 0.00 0.00 73 1019.5
20260906144001 56 300 0.0 4.0 0.00 0.00 0.00 72 1019.5
20260906143502 56 296 0.0 4.0 0.00 0.00 0.00 72 1019.4
20260906143103 56 309 0.0 5.0 0.00 0.00 0.00 73 1019.3
20260906142559 56 272 0.0 5.0 0.00 0.00 0.00 76 1019.3
20260906142502 55 281 0.0 3.0 0.00 0.00 0.00 76 1019.2
20260906142059 55 275 0.0 5.0 0.00 0.00 0.00 76 1019.2
20260906141102 55 301 0.0 5.0 0.00 0.00 0.00 75 1019.1
20260906140602 55 292 0.0 5.0 0.00 0.00 0.00 74 1019.1
20260906140107 54 272 0.0 5.0 0.00 0.00 0.00 73 1019.1
20260906135600 54 251 0.0 5.0 0.00 0.00 0.00 74 1019.1
20260906135056 54 303 0.0 5.0 0.00 0.00 0.00 75 1019.0
20260906134600 54 307 0.0 6.0 0.00 0.00 0.00 75 1019.0
20260906134056 54 290 0.0 3.0 0.00 0.00 0.00 75 1019.0
20260906133556 55 288 0.0 5.0 0.00 0.00 0.00 75 1019.0
20260906133056 55 289 0.0 5.0 0.00 0.00 0.00 75 1019.0
20260906132602 55 297 0.0 6.0 0.00 0.00 0.00 73 1019.0
20260906132055 55 300 0.0 6.0 0.00 0.00 0.00 73 1018.9
20260906131053 55 292 0.0 4.0 0.00 0.00 0.00 73 1018.8
20260906130557 55 292 0.0 4.0 0.00 0.00 0.00 73 1018.8
20260906130054 55 292 0.0 5.0 0.00 0.00 0.00 73 1018.7
20260906125553 55 290 0.0 5.0 0.00 0.00 0.00 73 1018.7
20260906125055 55 292 0.0 4.0 0.00 0.00 0.00 73 1018.8
20260906124553 55 298 0.0 5.0 0.00 0.00 0.00 73 1018.7
20260906124053 55 296 1.0 5.0 0.00 0.00 0.00 73 1018.7
20260906123552 55 300 0.0 5.0 0.00 0.00 0.00 74 1018.7
20260906123052 55 301 0.0 6.0 0.00 0.00 0.00 74 1018.7
20260906122552 55 294 0.0 6.0 0.00 0.00 0.00 74 1018.6
20260906122052 55 298 0.0 5.0 0.00 0.00 0.00 75 1018.7
20260906121051 55 307 0.0 6.0 0.00 0.00 0.00 76 1018.6
20260906120551 55 318 0.0 6.0 0.00 0.00 0.00 76 1018.6
20260906120053 55 313 1.0 5.0 0.00 0.00 0.00 73 1018.7
20260906115550 55 305 1.0 5.0 0.00 0.00 0.00 73 1018.6
20260906115048 55 305 0.0 6.0 0.00 0.00 0.00 72 1018.6
20260906114550 55 305 0.0 6.0 0.00 0.00 0.00 72 1018.7
20260906114048 55 304 0.0 5.0 0.00 0.00 0.00 72 1018.6
20260906113550 55 345 0.0 6.0 0.00 0.00 0.00 73 1018.7
20260906113055 55 303 0.0 6.0 0.00 0.00 0.00 74 1018.6
20260906112547 55 291 0.0 5.0 0.00 0.00 0.00 75 1018.6
20260906112047 55 306 0.0 8.0 0.00 0.00 0.00 74 1018.6
20260906111047 56 276 0.0 6.0 0.00 0.00 0.00 73 1018.6
20260906110547 56 207 1.0 6.0 0.00 0.00 0.00 73 1018.6
20260906110046 56 240 0.0 5.0 0.00 0.00 0.00 72 1018.6
20260906105546 56 276 0.0 9.0 0.00 0.00 0.00 71 1018.5
20260906105045 56 259 1.0 9.0 0.00 0.00 0.00 71 1018.5
20260906104602 56 285 1.0 7.0 0.00 0.00 0.00 72 1018.5
20260906104045 56 286 0.0 5.0 0.00 0.00 0.00 72 1018.5
20260906103545 56 284 1.0 7.0 0.00 0.00 0.00 72 1018.6
20260906103045 56 213 1.0 7.0 0.00 0.00 0.00 72 1018.6
20260906102547 56 290 0.0 7.0 0.00 0.00 0.00 73 1018.6
20260906102044 56 273 0.0 9.0 0.00 0.00 0.00 73 1018.6
20260906101045 57 291 1.0 11.0 0.00 0.00 0.00 73 1018.5
20260906100542 57 280 1.0 7.0 0.00 0.00 0.00 72 1018.5
20260906100045 57 289 1.0 10.0 0.00 0.00 0.00 70 1018.4
20260906095544 57 276 2.0 10.0 0.00 0.00 0.00 70 1018.4
20260906095041 57 319 1.0 9.0 0.00 0.00 0.00 69 1018.5
20260906094607 57 281 1.0 7.0 0.00 0.00 0.00 70 1018.5
20260906094040 57 282 0.0 13.0 0.00 0.00 0.00 71 1018.5
20260906093539 57 299 1.0 13.0 0.00 0.00 0.00 69 1018.6
20260906093040 57 292 1.0 6.0 0.00 0.00 0.00 68 1018.6
20260906092538 57 324 0.0 6.0 0.00 0.00 0.00 68 1018.7
20260906092037 57 297 1.0 7.0 0.00 0.00 0.00 66 1018.7
20260906091038 56 297 0.0 9.0 0.00 0.00 0.00 68 1018.7
20260906090535 56 315 2.0 9.0 0.00 0.00 0.00 68 1018.7
20260906090035 56 287 1.0 11.0 0.00 0.00 0.00 72 1018.8
20260906085534 57 315 3.0 11.0 0.00 0.00 0.00 73 1018.8
20260906085035 57 287 2.0 8.0 0.00 0.00 0.00 71 1018.8
20260906084539 58 305 3.0 8.0 0.00 0.00 0.00 68 1018.8
20260906084035 58 327 2.0 9.0 0.00 0.00 0.00 67 1018.8
20260906083535 58 295 3.0 9.0 0.00 0.00 0.00 66 1018.8
20260906083037 58 288 2.0 8.0 0.00 0.00 0.00 67 1018.8
20260906082534 58 315 1.0 9.0 0.00 0.00 0.00 62 1018.8
20260906082034 58 308 3.0 9.0 0.00 0.00 0.00 61 1018.8
20260906081036 59 317 2.0 8.0 0.00 0.00 0.00 60 1018.9
20260906080535 59 237 1.0 6.0 0.00 0.00 0.00 58 1018.9
20260906080043 59 291 2.0 6.0 0.00 0.00 0.00 59 1018.9
20260906075536 59 249 0.0 9.0 0.00 0.00 0.00 57 1018.9
20260906075036 59 269 1.0 11.0 0.00 0.00 0.00 58 1018.9
20260906074538 59 301 2.0 11.0 0.00 0.00 0.00 59 1018.9
20260906074036 59 275 0.0 6.0 0.00 0.00 0.00 57 1018.9
20260906073536 59 294 0.0 13.0 0.00 0.00 0.00 57 1018.9
20260906073035 59 296 2.0 13.0 0.00 0.00 0.00 56 1019.0
20260906072538 59 231 0.0 7.0 0.00 0.00 0.00 57 1019.0
20260906072036 59 294 1.0 7.0 0.00 0.00 0.00 57 1019.0
20260906071036 60 2 1.0 7.0 0.00 0.00 0.00 57 1019.0
20260906070534 60 267 0.0 5.0 0.00 0.00 0.00 55 1019.1
20260906070033 60 240 0.0 5.0 0.00 0.00 0.00 55 1019.1
20260906065533 60 288 0.0 5.0 0.00 0.00 0.00 56 1019.1
20260906065033 60 262 0.0 6.0 0.00 0.00 0.00 55 1019.1
20260906064533 60 191 0.0 6.0 0.00 0.00 0.00 56 1019.1
20260906064032 60 238 0.0 8.0 0.00 0.00 0.00 56 1019.0
20260906063532 60 180 1.0 8.0 0.00 0.00 0.00 56 1019.1
20260906063036 60 249 0.0 7.0 0.00 0.00 0.00 57 1019.0
20260906062533 60 230 0.0 7.0 0.00 0.00 0.00 58 1019.1
20260906062033 60 217 1.0 6.0 0.00 0.00 0.00 58 1019.1
20260906061034 60 224 0.0 6.0 0.00 0.00 0.00 59 1019.1
20260906060534 60 174 0.0 8.0 0.00 0.00 0.00 59 1019.1
20260906060140 60 208 1.0 8.0 0.00 0.00 0.00 59 1019.1
20260906055534 60 188 0.0 7.0 0.00 0.00 0.00 60 1019.1
20260906055037 60 190 0.0 10.0 0.00 0.00 0.00 60 1019.2
20260906054534 60 200 2.0 10.0 0.00 0.00 0.00 60 1019.2
20260906054034 60 194 2.0 8.0 0.00 0.00 0.00 61 1019.2
20260906053534 60 201 1.0 9.0 0.00 0.00 0.00 61 1019.2
20260906053033 60 172 1.0 9.0 0.00 0.00 0.00 62 1019.2
20260906052533 60 273 1.0 11.0 0.00 0.00 0.00 61 1019.3
20260906052033 60 284 1.0 8.0 0.00 0.00 0.00 62 1019.3
20260906051038 61 326 0.0 9.0 0.00 0.00 0.00 63 1019.4
20260906050534 61 268 0.0 9.0 0.00 0.00 0.00 61 1019.4
20260906050035 61 225 1.0 6.0 0.00 0.00 0.00 61 1019.4
20260906045535 61 296 0.0 10.0 0.00 0.00 0.00 62 1019.5
20260906045034 61 202 2.0 10.0 0.00 0.00 0.00 62 1019.5
20260906044540 61 292 0.0 9.0 0.00 0.00 0.00 62 1019.4
20260906044034 61 172 1.0 9.0 0.00 0.00 0.00 61 1019.4
20260906043534 61 192 1.0 10.0 0.00 0.00 0.00 60 1019.4
20260906043042 61 274 1.0 9.0 0.00 0.00 0.00 60 1019.4
20260906042534 61 188 1.0 5.0 0.00 0.00 0.00 60 1019.5
20260906042034 61 248 1.0 9.0 0.00 0.00 0.00 60 1019.5
20260906041034 62 186 0.0 7.0 0.00 0.00 0.00 59 1019.4
20260906040533 62 234 0.0 7.0 0.00 0.00 0.00 59 1019.4
20260906040034 62 184 2.0 12.0 0.00 0.00 0.00 57 1019.3
20260906035530 62 214 3.0 12.0 0.00 0.00 0.00 57 1019.3
20260906035029 63 190 3.0 10.0 0.00 0.00 0.00 56 1019.2
20260906034530 63 190 4.0 12.0 0.00 0.00 0.00 57 1019.1
20260906034028 63 181 3.0 11.0 0.00 0.00 0.00 57 1019.1
20260906033529 63 190 2.0 9.0 0.00 0.00 0.00 56 1019.0
20260906033031 63 199 4.0 9.0 0.00 0.00 0.00 56 1018.9
20260906032528 63 210 4.0 9.0 0.00 0.00 0.00 56 1018.9
20260906032028 64 176 3.0 12.0 0.00 0.00 0.00 56 1019.0
20260906031028 64 207 3.0 12.0 0.00 0.00 0.00 55 1018.9
20260906030529 64 191 5.0 11.0 0.00 0.00 0.00 55 1018.8
20260906030028 64 211 4.0 12.0 0.00 0.00 0.00 55 1018.7
20260906025532 65 165 4.0 12.0 0.00 0.00 0.00 54 1018.6
20260906025029 65 164 3.0 9.0 0.00 0.00 0.00 55 1018.6
20260906024528 65 203 3.0 9.0 0.00 0.00 0.00 54 1018.6
20260906024032 66 314 2.0 9.0 0.00 0.00 0.00 54 1018.6
20260906023528 66 272 0.0 7.0 0.00 0.00 0.00 55 1018.5
20260906023028 66 264 1.0 8.0 0.00 0.00 0.00 54 1018.5
20260906022527 67 162 0.0 8.0 0.00 0.00 0.00 54 1018.5
20260906022027 67 198 1.0 9.0 0.00 0.00 0.00 53 1018.4
20260906021027 68 321 3.0 12.0 0.00 0.00 0.00 52 1018.4
20260906020528 68 215 4.0 12.0 0.00 0.00 0.00 51 1018.4
20260906020032 68 211 3.0 12.0 0.00 0.00 0.00 49 1018.4
20260906015527 69 241 5.0 13.0 0.00 0.00 0.00 49 1018.4
20260906015027 69 194 3.0 13.0 0.00 0.00 0.00 47 1018.3
20260906014531 69 195 3.0 10.0 0.00 0.00 0.00 46 1018.3
20260906014029 69 186 4.0 13.0 0.00 0.00 0.00 46 1018.2
20260906013527 70 217 4.0 13.0 0.00 0.00 0.00 46 1018.2
20260906013027 70 184 2.0 11.0 0.00 0.00 0.00 45 1018.2
20260906012526 70 208 4.0 13.0 0.00 0.00 0.00 45 1018.2
20260906012027 70 195 1.0 13.0 0.00 0.00 0.00 46 1018.1
20260906011030 71 198 1.0 17.0 0.00 0.00 0.00 45 1018.1
20260906010526 71 190 6.0 15.0 0.00 0.00 0.00 44 1018.1
20260906010027 71 192 4.0 13.0 0.00 0.00 0.00 44 1018.1
20260906005526 72 209 1.0 12.0 0.00 0.00 0.00 44 1018.1
20260906005026 72 192 5.0 17.0 0.00 0.00 0.00 43 1018.1
20260906004525 73 183 9.0 17.0 0.00 0.00 0.00 41 1018.1
20260906004025 74 195 1.0 10.0 0.00 0.00 0.00 40 1018.1
20260906003525 75 176 3.0 10.0 0.00 0.00 0.00 39 1018.2
20260906003028 75 269 0.0 5.0 0.00 0.00 0.00 38 1018.2
20260906002527 75 274 0.0 3.0 0.00 0.00 0.00 38 1018.1
20260906002025 75 290 0.0 4.0 0.00 0.00 0.00 37 1018.2
20260906001025 74 298 0.0 5.0 0.00 0.00 0.00 38 1018.1
20260906000525 74 307 0.0 6.0 0.00 0.00 0.00 37 1018.1
20260906000025 74 342 1.0 6.0 0.00 0.00 0.00 37 1018.1
20260905235524 74 296 0.0 4.0 0.00 0.00 0.00 37 1018.1
20260905235028 74 308 0.0 4.0 0.00 0.00 0.00 38 1018.1
20260905234524 73 303 0.0 6.0 0.00 0.00 0.00 38 1018.1
20260905234031 73 311 2.0 6.0 0.00 0.00 0.00 39 1018.1
20260905233524 73 258 0.0 7.0 0.00 0.00 0.00 39 1018.1
20260905233030 73 280 1.0 7.0 0.00 0.00 0.00 38 1018.2
20260905232523 73 300 0.0 7.0 0.00 0.00 0.00 39 1018.2
20260905232028 73 286 0.0 5.0 0.00 0.00 0.00 40 1018.3
20260905231022 74 290 0.0 5.0 0.00 0.00 0.00 37 1018.3
20260905230526 75 307 0.0 4.0 0.00 0.00 0.00 37 1018.2
20260905230021 75 301 1.0 7.0 0.00 0.00 0.00 36 1018.3
20260905225520 76 326 1.0 7.0 0.00 0.00 0.00 35 1018.3
20260905225021 76 337 0.0 6.0 0.00 0.00 0.00 36 1018.4
20260905224521 77 290 1.0 6.0 0.00 0.00 0.00 35 1018.5
20260905224018 77 305 0.0 2.0 0.00 0.00 0.00 36 1018.6
20260905223518 76 309 0.0 0.0 0.00 0.00 0.00 36 1018.6
20260905223031 75 309 0.0 8.0 0.00 0.00 0.00 35 1018.7
20260905222518 76 303 1.0 8.0 0.00 0.00 0.00 35 1018.8
20260905222022 77 288 0.0 6.0 0.00 0.00 0.00 36 1018.8
20260905221026 76 296 1.0 5.0 0.00 0.00 0.00 36 1018.8
20260905220525 76 287 0.0 2.0 0.00 0.00 0.00 36 1018.8
20260905220028 76 257 0.0 6.0 0.00 0.00 0.00 36 1018.9
20260905215525 76 283 0.0 6.0 0.00 0.00 0.00 35 1018.9
20260905215025 76 290 0.0 7.0 0.00 0.00 0.00 35 1018.9
20260905214524 76 303 0.0 7.0 0.00 0.00 0.00 35 1019.0
20260905214023 76 272 0.0 4.0 0.00 0.00 0.00 36 1019.1
20260905213525 75 273 0.0 5.0 0.00 0.00 0.00 35 1019.0
20260905213023 75 281 1.0 5.0 0.00 0.00 0.00 36 1019.0
20260905212523 74 353 0.0 5.0 0.00 0.00 0.00 35 1019.0
20260905212026 75 336 0.0 6.0 0.00 0.00 0.00 35 1019.1
20260905211013 76 18 0.0 3.0 0.00 0.00 0.00 33 1019.1
20260905210513 76 286 0.0 2.0 0.00 0.00 0.00 33 1019.2
20260905210010 75 283 0.0 2.0 0.00 0.00 0.00 34 1019.2
20260905205510 75 305 0.0 5.0 0.00 0.00 0.00 36 1019.3
20260905205010 75 320 0.0 5.0 0.00 0.00 0.00 34 1019.3
20260905204511 75 282 0.0 0.0 0.00 0.00 0.00 37 1019.4
20260905204008 74 286 0.0 2.0 0.00 0.00 0.00 38 1019.4
20260905203511 73 286 0.0 5.0 0.00 0.00 0.00 39 1019.4
20260905203008 73 291 0.0 6.0 0.00 0.00 0.00 39 1019.4
20260905202507 73 305 0.0 6.0 0.00 0.00 0.00 38 1019.4
20260905202007 74 26 0.0 3.0 0.00 0.00 0.00 39 1019.4
20260905201007 74 38 0.0 2.0 0.00 0.00 0.00 35 1019.5
20260905200509 73 43 0.0 1.0 0.00 0.00 0.00 37 1019.5
20260905200008 73 43 0.0 1.0 0.00 0.00 0.00 42 1019.5
20260905195512 73 43 0.0 1.0 0.00 0.00 0.00 41 1019.5
20260905195006 73 59 0.0 0.0 0.00 0.00 0.00 29 1019.5
20260905194506 72 59 0.0 1.0 0.00 0.00 0.00 31 1019.5
20260905194140 72 59 0.0 3.0 0.00 0.00 0.00 29 1019.5
20260905193505 73 60 0.0 4.0 0.00 0.00 0.00 30 1019.5
20260905193005 74 88 0.0 4.0 0.00 0.00 0.00 35 1019.6
20260905192502 73 83 0.0 4.0 0.00 0.00 0.00 33 1019.7
20260905192002 72 78 0.0 4.0 0.00 0.00 0.00 38 1019.8
20260905191104 72 75 0.0 5.0 0.00 0.00 0.00 46 1020.0
20260905191002 72 74 0.0 5.0 0.00 0.00 0.00 46 1020.0
20260905190600 72 86 0.0 3.0 0.00 0.00 0.00 43 1020.0
20260905190058 71 66 0.0 5.0 0.00 0.00 0.00 45 1020.0
20260905185556 71 92 1.0 5.0 0.00 0.00 0.00 46 1020.1
20260905185059 70 105 0.0 4.0 0.00 0.00 0.00 58 1020.1
20260905184603 70 251 0.0 0.0 0.00 0.00 0.00 58 1020.1
20260905184053 69 251 0.0 0.0 0.00 0.00 0.00 60 1020.1
20260905183554 68 251 0.0 0.0 0.00 0.00 0.00 61 1020.1
20260905183050 67 251 0.0 0.0 0.00 0.00 0.00 65 1020.1
20260905182549 67 251 0.0 0.0 0.00 0.00 0.00 65 1020.1
20260905182048 67 251 0.0 0.0 0.00 0.00 0.00 65 1020.1
20260905181051 66 251 0.0 0.0 0.00 0.00 0.00 65 1020.1
20260905180550 65 251 0.0 0.0 0.00 0.00 0.00 68 1020.2
20260905180053 65 267 0.0 0.0 0.00 0.00 0.00 68 1020.2
20260905175549 65 267 0.0 0.0 0.00 0.00 0.00 68 1020.2
20260905175048 64 267 0.0 0.0 0.00 0.00 0.00 69 1020.2
20260905174547 64 267 0.0 0.0 0.00 0.00 0.00 70 1020.3
20260905174047 64 267 0.0 3.0 0.00 0.00 0.00 71 1020.2
20260905173544 63 271 0.0 3.0 0.00 0.00 0.00 72 1020.3
20260905173044 63 259 0.0 0.0 0.00 0.00 0.00 72 1020.3
20260905172543 63 258 0.0 0.0 0.00 0.00 0.00 74 1020.3